Wind_Speed
31 33 45 39 39 33 29 27 30 25 28 24 24 23 22 15 18 18 20 23 23 23 22 24 24 27 28 27 27 27 27 26 25 24 21 19 16 15 13 13 12 10 8 7
28 44 33 31 33 35 34 33 31 29 21 20 23 26 23 19 19 20 22 23 24 23 24 25 19 28 29 29 27 28 28 27 25 24 22 20 17 16 14 13 12 12 11 9
40 21 31 31 33 36 38 37 32 30 26 25 24 26 26 23 20 21 22 22 23 26 27 20 17 24 29 30 27 28 29 27 26 25 24 22 20 18 16 15 14 12 12 11
36 31 23 35 35 35 37 35 32 25 28 30 29 25 30 25 24 24 23 26 25 26 28 26 18 17 26 27 27 28 29 28 26 26 24 21 18 17 15 14 13 13 13 12
45 36 32 35 37 33 34 26 32 31 30 28 29 33 29 33 33 29 25 25 26 25 28 30 18 15 19 27 28 28 29 30 28 26 25 22 22 18 16 15 14 14 13 13
36 28 32 30 30 28 27 24 25 28 32 30 37 33 33 30 28 30 27 27 25 24 27 30 26 23 17 25 28 30 31 31 30 26 26 23 22 21 20 18 16 14 13 12
37 41 30 29 29 31 28 29 21 21 24 17 38 39 38 31 28 28 28 29 28 24 27 30 31 26 20 20 24 25 29 30 28 27 27 24 24 24 21 19 17 16 15 14
39 36 45 33 39 36 36 38 27 21 18 19 34 40 43 34 20 30 27 28 28 25 24 30 32 28 24 20 20 26 28 31 31 29 27 24 24 26 23 20 18 17 15 14
40 44 29 42 35 38 34 46 39 29 30 20 32 36 31 30 33 28 29 30 29 27 25 30 32 29 21 24 20 18 23 26 27 26 25 24 22 27 25 21 19 20 19 18
37 30 38 29 34 37 34 37 36 33 20 19 19 20 32 27 25 38 34 27 34 28 27 28 31 28 21 23 22 18 20 19 21 25 25 24 24 25 24 23 23 22 19 18
45 31 23 38 49 44 46 36 41 33 31 13 11 17 21 28 22 29 34 36 30 28 27 29 29 28 23 25 28 24 23 21 22 20 21 25 26 26 27 26 25 25 23 22
48 30 35 46 39 36 38 42 40 33 33 32 19 2 5 16 19 21 26 26 32 29 27 27 28 26 29 27 28 28 27 26 24 24 22 21 21 26 29 31 30 28 28 27
31 35 29 30 36 39 45 42 37 40 29 31 22 11 7 8 8 20 22 22 25 28 26 27 28 25 26 29 27 26 27 26 28 29 27 26 25 25 24 25 29 30 32 33
25 31 38 27 41 40 42 43 42 37 39 29 32 23 10 8 13 16 18 18 22 24 24 27 27 26 26 25 24 27 28 29 32 33 32 30 27 25 25 25 24 26 26 28
13 24 33 35 22 30 39 44 43 44 38 38 23 26 16 13 13 16 16 15 14 13 20 26 28 25 28 29 24 18 19 21 20 23 32 35 32 31 32 31 28 29 29 27
11 19 26 31 33 16 20 37 44 43 39 36 31 21 25 14 15 13 12 12 12 12 14 14 15 21 31 35 31 28 23 22 21 23 23 29 39 37 35 33 31 32 32 30
4 13 21 26 31 19 23 29 33 37 40 34 36 31 18 16 15 16 15 14 13 13 12 15 17 15 24 29 32 32 30 27 28 27 27 28 38 40 41 37 34 33 34 35
9 8 10 23 26 20 26 27 23 26 29 33 28 23 26 21 19 19 17 15 15 18 22 20 20 19 20 22 20 28 33 36 33 32 29 28 34 43 41 40 39 38 37 37
15 12 10 16 28 15 29 21 27 31 31 24 25 22 19 19 17 20 20 21 22 19 16 18 19 22 24 27 27 29 34 37 35 32 31 27 34 40 43 40 41 41 42 42
20 18 17 12 16 18 8 16 13 17 20 27 28 20 19 18 18 12 18 20 19 17 17 18 20 22 24 34 32 33 36 36 34 31 33 30 32 36 39 41 40 42 39 38
21 24 23 22 14 17 10 10 19 17 8 12 18 20 18 19 20 26 18 24 27 29 28 28 27 26 28 28 35 35 35 38 31 35 36 32 27 35 36 41 42 41 41 43
20 27 28 26 25 20 11 10 13 11 15 10 12 14 18 15 19 25 27 28 25 29 32 29 27 28 26 23 31 31 29 30 33 34 32 33 30 32 38 39 43 45 44 41
14 16 25 27 33 16 24 12 10 8 8 5 4 6 8 10 14 28 27 27 23 20 26 32 31 31 31 27 29 32 29 28 32 32 27 28 31 32 34 36 38 41 41 39
15 18 22 22 26 20 23 18 19 17 14 14 12 13 12 13 14 21 26 24 24 26 21 30 33 33 33 30 26 34 32 30 31 31 28 24 27 30 32 34 36 37 38 39
20 17 26 33 30 28 26 24 22 24 24 26 20 20 20 18 19 17 17 20 20 26 26 25 33 35 31 31 26 30 32 32 31 28 30 31 28 28 29 29 31 33 34 33
24 27 29 29 23 25 28 28 29 27 36 40 34 32 32 34 30 24 16 21 26 28 28 26 27 33 31 32 29 26 33 33 31 29 28 29 28 29 28 28 28 29 29 30
Wind_Direction
200 203 210 210 212 218 222 221 223 221 216 211 221 219 214 210 204 210 209 203 204 202 201 202 212 205 205 210 211 208 205 205 207 209 209 212 220 225 229 236 237 229 225 222
205 216 214 214 216 217 222 227 226 223 218 220 219 222 222 216 215 212 209 206 203 199 202 202 217 215 213 214 212 211 207 207 207 210 212 215 218 225 225 228 230 231 232 232
207 224 212 214 213 216 221 223 225 226 219 225 229 231 225 224 217 210 209 210 204 202 202 226 225 224 218 217 216 215 210 209 209 211 213 216 217 222 222 226 232 232 235 229
215 212 214 210 215 213 221 219 224 225 228 221 218 234 220 218 215 211 211 212 209 207 205 215 226 231 228 221 218 216 214 211 212 215 215 215 217 222 226 228 238 240 236 237
216 211 213 213 214 212 221 217 221 223 232 236 234 220 233 212 216 213 215 210 211 211 208 208 222 220 226 220 218 215 213 212 212 215 213 211 213 217 224 226 227 233 237 242
219 220 214 221 216 215 214 217 220 222 228 237 231 233 232 222 216 214 214 213 210 214 213 208 211 213 214 224 219 216 214 213 212 213 216 214 216 220 223 225 228 233 246 246
215 217 221 213 215 209 205 205 207 218 218 227 223 230 231 224 224 220 216 214 211 213 207 208 204 208 212 217 221 222 215 214 214 214 218 220 219 220 221 224 227 233 243 248
211 217 214 212 211 203 205 202 209 209 217 225 227 224 231 227 227 224 220 213 209 211 209 206 207 211 213 222 223 212 214 211 215 219 220 223 224 221 224 228 238 245 252 254
208 221 217 212 206 203 204 212 209 229 218 232 220 227 235 229 225 221 216 208 209 211 209 205 206 209 211 216 219 221 219 217 221 225 225 224 222 216 222 231 239 242 242 246
224 216 215 207 211 215 212 212 212 230 252 223 233 235 214 215 217 215 213 209 209 210 209 208 204 207 212 211 213 215 217 213 217 223 224 225 226 222 225 233 236 241 247 246
219 230 232 211 206 205 207 212 213 220 227 239 240 228 226 210 217 214 211 211 202 204 209 204 202 207 213 211 208 217 219 217 219 220 219 222 223 224 226 232 232 238 245 248
211 229 231 208 211 211 212 209 206 219 218 232 262 199 137 190 216 209 207 205 207 207 208 207 207 205 210 210 208 214 218 223 225 224 219 218 222 229 231 233 238 239 244 245
196 215 219 224 204 211 213 209 211 214 223 214 226 198 154 175 178 195 192 195 194 200 203 205 203 210 208 212 214 215 220 222 222 223 222 222 221 221 224 225 232 239 241 246
198 210 217 215 201 199 208 210 211 213 217 221 212 220 153 141 166 169 175 184 190 194 198 198 202 209 211 214 220 220 220 220 220 222 222 224 228 226 226 231 228 232 233 236
209 219 218 232 218 212 209 212 211 213 215 219 209 209 194 177 149 148 159 158 168 190 206 210 210 212 207 220 226 212 214 217 224 232 234 235 236 227 228 231 234 235 239 243
220 233 224 234 231 229 235 213 215 214 216 219 221 211 204 178 180 184 199 210 214 201 188 196 207 220 227 233 235 225 223 230 239 248 253 243 234 236 234 231 235 239 240 246
268 222 222 230 223 225 236 217 217 216 215 215 218 217 212 204 207 221 230 228 224 228 231 233 230 224 215 216 221 225 232 235 244 254 264 254 234 234 236 233 235 244 243 244
252 257 232 221 221 222 227 215 211 217 217 217 221 220 223 233 233 241 243 246 249 243 242 239 233 230 221 222 229 238 235 239 243 255 261 259 238 232 237 235 236 243 244 247
229 236 242 234 217 213 223 208 211 215 219 216 220 223 226 226 233 248 254 260 254 256 248 246 233 229 232 220 220 221 231 236 243 251 257 258 243 237 234 239 239 243 246 249
225 228 234 230 247 204 165 178 178 204 223 219 221 222 226 217 223 236 234 229 236 245 240 240 241 234 232 235 237 238 237 245 248 250 250 256 246 240 237 233 238 241 243 244
209 220 221 230 243 226 193 126 185 178 140 158 191 207 216 225 223 233 232 228 232 220 217 221 225 219 219 224 229 235 238 244 250 242 242 246 252 245 238 231 236 238 241 245
206 208 219 221 228 234 208 194 185 189 176 144 170 189 203 226 233 232 226 229 236 237 229 226 228 221 224 225 227 230 241 244 238 241 243 241 243 242 234 235 237 242 243 244
241 225 221 219 222 228 230 226 227 249 235 277 260 254 274 279 238 227 227 240 254 249 236 227 227 228 231 230 229 228 236 237 234 237 241 240 237 235 236 240 246 247 247 252
256 241 246 246 235 244 235 242 248 250 263 269 268 279 272 276 231 216 229 243 256 253 246 236 232 234 234 231 233 226 230 236 239 239 241 242 241 242 243 245 247 249 253 256
247 251 243 248 245 248 245 246 254 247 259 242 255 238 233 233 229 228 236 247 254 256 257 252 241 236 238 235 241 234 229 234 238 241 243 246 249 252 253 253 255 258 259 260
246 249 249 244 243 248 253 252 254 246 234 233 237 221 222 226 229 221 242 263 265 264 261 260 256 246 244 240 243 242 230 231 234 235 237 240 244 250 251 252 253 256 258 262
Height
3113 3116 3109 3117 3124 3130 3132 3132 3133 3134 3138 3141 3145 3147 3148 3151 3154 3158 3161 3163 3165 3166 3169 3171 3173 3175 3178 3180 3182 3186 3189 3193 3197 3200 3203 3207 3210 3212 3214 3216 3217 3218 3219 3220
3109 3099 3110 3118 3122 3125 3128 3128 3128 3132 3134 3137 3140 3142 3145 3147 3149 3154 3156 3160 3162 3165 3166 3167 3169 3172 3174 3177 3180 3183 3187 3190 3194 3198 3202 3204 3207 3210 3212 3214 3215 3216 3218 3219
3095 3098 3106 3111 3114 3118 3120 3122 3124 3127 3131 3134 3136 3138 3140 3143 3145 3149 3153 3156 3158 3159 3160 3162 3164 3168 3170 3172 3176 3180 3185 3188 3192 3196 3199 3202 3205 3208 3210 3212 3214 3215 3216 3217
3093 3097 3099 3103 3106 3111 3112 3119 3123 3126 3127 3126 3132 3131 3133 3136 3140 3144 3148 3151 3153 3156 3158 3158 3161 3163 3166 3169 3173 3177 3181 3185 3189 3193 3196 3199 3203 3206 3208 3210 3212 3214 3215 3216
3078 3087 3093 3095 3098 3105 3108 3115 3120 3124 3125 3125 3122 3125 3120 3126 3131 3135 3141 3145 3149 3152 3154 3155 3156 3160 3163 3166 3169 3173 3177 3181 3185 3190 3194 3197 3200 3203 3206 3208 3210 3212 3213 3214
3080 3085 3087 3089 3096 3101 3108 3112 3115 3119 3121 3113 3116 3117 3113 3115 3121 3127 3133 3139 3143 3147 3150 3152 3154 3156 3159 3162 3165 3167 3172 3177 3181 3187 3191 3194 3198 3201 3203 3206 3207 3209 3210 3212
3072 3073 3079 3084 3089 3095 3100 3105 3106 3107 3102 3095 3109 3110 3108 3113 3117 3122 3127 3133 3138 3142 3145 3147 3150 3151 3155 3158 3162 3164 3168 3174 3179 3183 3187 3191 3194 3197 3200 3203 3205 3206 3207 3209
3060 3065 3067 3072 3076 3083 3089 3093 3089 3089 3089 3093 3100 3094 3097 3109 3112 3116 3121 3127 3132 3136 3140 3143 3145 3147 3150 3155 3158 3161 3164 3169 3173 3178 3182 3187 3191 3194 3197 3200 3202 3204 3206 3207
3049 3052 3058 3065 3072 3077 3081 3080 3086 3084 3083 3080 3083 3090 3097 3100 3105 3111 3115 3120 3125 3129 3135 3137 3140 3142 3146 3150 3155 3158 3162 3166 3170 3175 3179 3182 3185 3189 3192 3196 3198 3200 3202 3204
3042 3048 3052 3058 3067 3069 3070 3080 3085 3082 3076 3073 3074 3077 3083 3090 3096 3101 3108 3113 3119 3125 3129 3133 3136 3138 3141 3145 3150 3155 3159 3162 3166 3170 3174 3178 3182 3185 3188 3191 3193 3196 3198 3201
3039 3040 3042 3050 3046 3054 3063 3067 3075 3079 3076 3071 3074 3073 3076 3082 3089 3095 3101 3107 3113 3119 3123 3128 3131 3135 3137 3141 3145 3149 3154 3158 3162 3165 3169 3172 3176 3179 3183 3185 3188 3191 3194 3196
3029 3035 3036 3032 3045 3053 3056 3061 3066 3067 3071 3073 3070 3071 3074 3078 3084 3090 3096 3101 3108 3115 3120 3124 3129 3132 3136 3136 3139 3143 3148 3152 3156 3160 3164 3167 3171 3175 3177 3179 3182 3187 3189 3192
3025 3027 3029 3029 3039 3044 3045 3053 3058 3066 3068 3068 3072 3073 3075 3079 3082 3087 3092 3098 3104 3110 3116 3120 3125 3129 3131 3133 3134 3138 3142 3146 3150 3154 3158 3162 3165 3168 3170 3173 3177 3180 3184 3186
3015 3020 3020 3014 3016 3034 3041 3044 3052 3057 3060 3062 3066 3071 3075 3079 3082 3085 3091 3096 3101 3106 3109 3115 3121 3125 3127 3129 3130 3133 3137 3140 3144 3147 3151 3154 3158 3162 3165 3168 3172 3175 3178 3180
3021 3020 3021 3018 3022 3027 3031 3038 3043 3047 3054 3057 3062 3069 3072 3079 3083 3086 3090 3094 3097 3101 3104 3109 3113 3117 3121 3124 3126 3130 3133 3136 3140 3142 3145 3148 3152 3156 3159 3163 3166 3170 3172 3175
3018 3020 3022 3018 3019 3024 3026 3029 3037 3043 3050 3057 3061 3065 3072 3076 3082 3086 3089 3093 3096 3098 3103 3107 3109 3110 3113 3118 3121 3125 3128 3131 3134 3137 3140 3142 3146 3149 3152 3156 3160 3163 3167 3168
3018 3020 3019 3015 3020 3024 3026 3025 3030 3037 3045 3051 3056 3064 3068 3073 3077 3081 3085 3088 3092 3095 3098 3101 3103 3106 3108 3111 3115 3118 3122 3126 3128 3131 3133 3134 3137 3141 3145 3150 3153 3155 3158 3161
3022 3021 3019 3018 3021 3019 3019 3027 3031 3034 3040 3046 3053 3059 3064 3067 3072 3077 3080 3082 3084 3087 3091 3094 3098 3102 3105 3108 3113 3113 3115 3119 3122 3124 3127 3127 3129 3133 3137 3142 3145 3147 3150 3153
3021 3022 3020 3017 3013 3016 3018 3023 3028 3033 3038 3044 3050 3055 3059 3064 3068 3071 3073 3075 3077 3081 3084 3088 3092 3097 3099 3100 3103 3105 3105 3111 3115 3119 3120 3121 3122 3125 3130 3134 3138 3139 3143 3145
3019 3022 3023 3018 3011 3007 3016 3019 3024 3030 3035 3041 3047 3052 3056 3060 3063 3070 3067 3067 3071 3075 3079 3082 3085 3087 3089 3091 3096 3098 3100 3103 3108 3112 3113 3115 3116 3119 3122 3127 3130 3133 3135 3137
3014 3018 3020 3020 3017 3014 3017 3019 3024 3031 3037 3034 3041 3047 3051 3053 3056 3052 3056 3060 3062 3062 3066 3070 3072 3075 3079 3083 3087 3090 3093 3096 3102 3102 3105 3107 3109 3113 3115 3119 3123 3126 3128 3128
3008 3012 3014 3019 3019 3018 3018 3022 3026 3025 3025 3027 3032 3035 3038 3040 3043 3048 3051 3053 3055 3057 3059 3063 3066 3069 3072 3075 3078 3083 3086 3090 3091 3094 3096 3099 3102 3105 3108 3111 3114 3116 3118 3119
3008 3007 3010 3013 3015 3016 3014 3018 3023 3022 3022 3026 3027 3031 3035 3037 3039 3042 3045 3047 3049 3051 3052 3055 3058 3063 3065 3068 3071 3074 3078 3080 3083 3087 3090 3092 3095 3098 3101 3104 3106 3108 3110 3111
3003 3003 3004 3007 3007 3009 3011 3013 3014 3015 3019 3021 3024 3028 3030 3031 3033 3037 3040 3042 3043 3045 3048 3051 3053 3056 3058 3062 3063 3066 3069 3073 3077 3080 3083 3086 3088 3090 3093 3095 3097 3098 3100 3102
3001 3001 3002 3000 3003 3005 3005 3007 3010 3012 3012 3014 3017 3017 3020 3024 3028 3030 3034 3036 3039 3040 3042 3043 3045 3049 3052 3055 3057 3060 3063 3066 3069 3072 3075 3078 3080 3082 3084 3086 3088 3089 3091 3092
2997 2996 2995 2995 2999 2999 3001 3004 3005 3006 3008 3008 3008 3012 3017 3020 3023 3026 3028 3032 3033 3034 3036 3037 3040 3043 3045 3047 3051 3053 3055 3059 3062 3065 3067 3070 3073 3074 3076 3078 3079 3081 3082 3083